{"data":{"norad_id":63384,"epoch":"2026-09-20T06:46:42.928320Z","epoch_age_seconds":177648,"freshness":"STALE","line1":"1 63384U 25063X   26263.28244130  .00017774  00000+0  53589-3 0  9991","line2":"2 63384  53.1595 222.8317 0001299  89.8137 270.3014 15.34403395 84631","mean_motion":15.34403395,"eccentricity":0.0001299,"inclination_deg":53.1595,"raan_deg":222.8317,"arg_perigee_deg":89.8137,"mean_anomaly_deg":270.3014,"bstar":0.00053589,"rev_number":8463,"period_min":93.847550435067,"perigee_km":461.80452573382,"apogee_km":463.58177340667,"semimajor_km":6840.8301495702,"source":"CELESTRAK","updated_at":"2026-09-21T09:00:34.976255Z"}}